Tracking 22124 objects as of 25-Jan-2021
HD Live streaming from Space Station
objects crossing your sky now

SKYNET 2B

Track SKYNET 2B now!
SKYNET 2B is classified as:


NORAD ID: 7547
Int'l Code: 1974-094A
Perigee: 35,790.6 km
Apogee: 35,815.7 km
Inclination: 8.4 °
Period: 1,436.6 minutes
Semi major axis: 42174 km
RCS: 3.166 m2 (large)
Launch date: November 23, 1974
Source: United Kingdom (UK)
Launch site: AIR FORCE EASTERN TEST RANGE (AFETR)
aabbcc
Your satellite tracking list
Your tracking list is empty




NASA's NSSDC Master Catalog

Two Line Element Set (TLE):
1 07547U 74094A   21024.00882774  .00000070  00000-0  00000-0 0  9999
2 07547   8.4064 302.1960 0002971  94.0447  98.4802  1.00238297105004
Source of the keplerian elements: AFSPC